EW8494 Weather Reports


Display with metric or nautical units.
time (UTC)temp
F
wind
direction
speed
MPH
gust
MPH
rain 1hr
in
rain 24hr
in
rain mn
in
humidity
%
barometer
mb
20260902233520 68 225 9.0 18.0 0.00 0.00 0.00 42 1005.8
20260902232539 68 225 10.0 19.0 0.00 0.00 0.00 42 1005.8
20260902231519 67 225 11.0 18.0 0.00 0.00 0.00 43 1005.7
20260902230518 67 225 13.0 23.0 0.00 0.00 0.00 45 1005.6
20260902225520 68 225 14.0 22.0 0.00 0.00 0.00 44 1005.5
20260902224521 68 225 15.0 24.0 0.00 0.00 0.00 46 1005.6
20260902223519 71 225 20.0 31.0 0.00 0.00 0.00 40 1005.4
20260902222518 74 225 2.0 5.0 0.00 0.00 0.00 35 1005.1
20260902221520 75 203 2.0 5.0 0.00 0.00 0.00 35 1004.9
20260902220540 74 0.0 4.0 0.00 0.00 0.00 32 1004.8
20260902215518 74 225 2.0 5.0 0.00 0.00 0.00 34 1005.0
20260902214538 75 225 3.0 6.0 0.00 0.00 0.00 32 1005.0
20260902213520 75 225 3.0 6.0 0.00 0.00 0.00 31 1004.9
20260902212540 76 203 3.0 7.0 0.00 0.00 0.00 30 1005.1
20260902211520 76 203 2.0 4.0 0.00 0.00 0.00 31 1004.9
20260902210520 76 180 2.0 3.0 0.00 0.00 0.00 31 1005.1
20260902205520 76 158 2.0 5.0 0.00 0.00 0.00 30 1005.2
20260902204519 76 203 3.0 8.0 0.00 0.00 0.00 29 1005.2
20260902203540 77 225 3.0 9.0 0.00 0.00 0.00 30 1005.3
20260902202519 75 225 4.0 10.0 0.00 0.00 0.00 30 1005.4
20260902201540 74 225 2.0 4.0 0.00 0.00 0.00 32 1005.7
20260902200518 75 225 6.0 11.0 0.00 0.00 0.00 30 1005.7
20260902195520 75 203 5.0 11.0 0.00 0.00 0.00 30 1006.0
20260902194520 74 203 3.0 9.0 0.00 0.00 0.00 31 1006.1
20260902193520 74 225 8.0 13.0 0.00 0.00 0.00 31 1006.3
20260902192520 74 225 8.0 14.0 0.00 0.00 0.00 33 1006.4
20260902191519 73 203 6.0 11.0 0.00 0.00 0.00 32 1006.4
20260902190541 72 203 6.0 13.0 0.00 0.00 0.00 33 1006.5
20260902185520 73 203 5.0 10.0 0.00 0.00 0.00 36 1006.6
20260902184540 71 180 2.0 6.0 0.00 0.00 0.00 38 1006.6
20260902183520 70 203 1.0 4.0 0.00 0.00 0.00 39 1006.7
20260902182541 71 203 3.0 10.0 0.00 0.00 0.00 36 1006.9
20260902181520 70 203 3.0 7.0 0.00 0.00 0.00 41 1006.9
20260902180520 70 203 4.0 8.0 0.00 0.00 0.00 40 1007.0
20260902175520 70 203 6.0 12.0 0.00 0.00 0.00 38 1007.1
20260902174519 69 203 6.0 15.0 0.00 0.00 0.00 39 1007.1
20260902173520 68 203 2.0 6.0 0.00 0.00 0.00 42 1007.0
20260902172520 67 203 2.0 5.0 0.00 0.00 0.00 45 1006.9
20260902171520 67 0.0 2.0 0.00 0.00 0.00 47 1007.0
20260902170520 66 158 1.0 6.0 0.00 0.00 0.00 47 1007.0
20260902165520 66 225 2.0 4.0 0.00 0.00 0.00 51 1007.0
20260902164520 64 203 2.0 5.0 0.00 0.00 0.00 52 1006.9
20260902163540 63 203 2.0 4.0 0.00 0.00 0.00 53 1007.0
20260902162520 63 203 3.0 6.0 0.00 0.00 0.00 53 1007.0
20260902161520 64 203 5.0 9.0 0.00 0.00 0.00 52 1007.2
20260902160540 65 203 5.0 11.0 0.00 0.00 0.00 51 1007.2
20260902155520 64 203 5.0 9.0 0.00 0.00 0.00 53 1007.4
20260902154519 63 203 5.0 11.0 0.00 0.00 0.00 54 1007.4
20260902153520 62 225 2.0 10.0 0.00 0.00 0.00 57 1007.5
20260902152519 61 0.0 4.0 0.00 0.00 0.00 57 1007.3
20260902151520 61 0.0 1.0 0.00 0.00 0.00 58 1007.3
20260902150519 60 203 2.0 5.0 0.00 0.00 0.00 59 1007.2
20260902145520 59 203 2.0 4.0 0.00 0.00 0.00 60 1007.2
20260902144519 58 203 4.0 6.0 0.00 0.00 0.00 61 1007.2
20260902143519 58 203 2.0 7.0 0.00 0.00 0.00 61 1007.1
20260902142520 58 0.0 2.0 0.00 0.00 0.00 61 1007.1
20260902141519 58 225 4.0 7.0 0.00 0.00 0.00 61 1006.9
20260902140520 58 203 2.0 5.0 0.00 0.00 0.00 61 1006.9
20260902135519 58 203 3.0 7.0 0.00 0.00 0.00 60 1006.8
20260902134520 59 225 4.0 7.0 0.00 0.00 0.00 59 1006.8
20260902133520 59 225 5.0 9.0 0.00 0.00 0.00 58 1006.6
20260902132519 60 225 5.0 9.0 0.00 0.00 0.00 57 1006.4
20260902131519 60 225 9.0 14.0 0.00 0.00 0.00 57 1006.2
20260902130519 60 225 7.0 11.0 0.00 0.00 0.00 57 1006.1
20260902125519 60 225 6.0 11.0 0.00 0.00 0.00 58 1006.2
20260902124520 60 225 8.0 16.0 0.00 0.00 0.00 58 1006.3
20260902123519 60 225 12.0 20.0 0.00 0.00 0.00 57 1006.3
20260902122519 60 225 11.0 19.0 0.00 0.00 0.00 57 1006.4
20260902121519 60 225 9.0 17.0 0.00 0.00 0.00 57 1006.5
20260902120519 61 203 7.0 13.0 0.00 0.00 0.00 56 1006.7
20260902115520 61 203 7.0 17.0 0.00 0.00 0.00 55 1006.8
20260902114520 61 203 8.0 14.0 0.00 0.00 0.00 55 1006.8
20260902113519 61 203 7.0 14.0 0.00 0.00 0.00 56 1006.7
20260902112519 60 203 5.0 8.0 0.00 0.00 0.00 58 1006.6
20260902111519 59 203 3.0 7.0 0.00 0.00 0.00 57 1006.4
20260902110520 59 225 5.0 9.0 0.00 0.00 0.00 57 1006.3
20260902105519 59 203 5.0 8.0 0.00 0.00 0.00 57 1006.1
20260902104519 59 0.0 0.0 0.00 0.00 0.00 56 1006.0
20260902103519 60 203 2.0 6.0 0.00 0.00 0.00 55 1005.9
20260902102519 60 0.0 3.0 0.00 0.00 0.00 54 1005.9
20260902101519 60 203 2.0 6.0 0.00 0.00 0.00 54 1006.0
20260902100539 61 0.0 3.0 0.00 0.00 0.00 53 1006.2
20260902095519 62 225 5.0 8.0 0.00 0.00 0.00 51 1006.1
20260902094519 61 225 5.0 8.0 0.00 0.00 0.00 52 1005.9
20260902093519 61 225 4.0 7.0 0.00 0.00 0.00 52 1005.8
20260902092519 61 203 4.0 7.0 0.00 0.00 0.00 54 1005.9
20260902091518 61 203 2.0 4.0 0.00 0.00 0.00 54 1006.0
20260902090519 62 203 2.0 4.0 0.00 0.00 0.00 54 1005.9
20260902085519 62 0.0 3.0 0.00 0.00 0.00 53 1006.1
20260902084539 62 0.0 3.0 0.00 0.00 0.00 52 1006.0
20260902083539 63 0.0 0.0 0.00 0.00 0.00 52 1006.0
20260902082518 63 203 1.0 3.0 0.00 0.00 0.00 51 1005.7
20260902081519 64 0.0 1.0 0.00 0.00 0.00 49 1005.6
20260902080519 65 225 3.0 7.0 0.00 0.00 0.00 47 1005.7
20260902075519 66 248 4.0 9.0 0.00 0.00 0.00 46 1005.4
20260902074519 66 225 3.0 7.0 0.00 0.00 0.00 45 1005.4
20260902073519 67 225 4.0 9.0 0.00 0.00 0.00 45 1005.5
20260902072519 66 225 5.0 11.0 0.00 0.00 0.00 47 1005.3
20260902071519 66 0.0 3.0 0.00 0.00 0.00 47 1005.4
20260902070519 66 225 1.0 1.0 0.00 0.00 0.00 47 1005.3
20260902065518 67 0.0 0.0 0.00 0.00 0.00 46 1005.2
20260902064539 68 0.0 0.0 0.00 0.00 0.00 44 1005.1
20260902063519 69 270 2.0 4.0 0.00 0.00 0.00 41 1005.1
20260902062519 69 248 6.0 9.0 0.00 0.00 0.00 41 1005.0
20260902061519 69 248 4.0 7.0 0.00 0.00 0.00 44 1005.0
20260902060519 69 225 4.0 7.0 0.00 0.00 0.00 43 1004.9
20260902055519 69 225 3.0 6.0 0.00 0.00 0.00 44 1004.6
20260902054518 68 225 1.0 5.0 0.00 0.00 0.00 44 1004.4
20260902053519 68 0.0 0.0 0.00 0.00 0.00 44 1004.3
20260902052519 68 203 1.0 5.0 0.00 0.00 0.00 43 1004.1
20260902051519 69 203 2.0 5.0 0.00 0.00 0.00 43 1003.9
20260902050518 69 203 2.0 3.0 0.00 0.00 0.00 42 1004.0
20260902045540 69 0.0 0.0 0.00 0.00 0.00 42 1003.8
20260902044539 69 225 2.0 5.0 0.00 0.00 0.00 40 1003.5
20260902043519 69 225 1.0 5.0 0.00 0.00 0.00 39 1003.6
20260902042518 70 0.0 0.0 0.00 0.00 0.00 39 1003.7
20260902041520 70 0.0 1.0 0.00 0.00 0.00 38 1003.6
20260902040518 71 158 2.0 5.0 0.00 0.00 0.00 36 1003.6
20260902035538 71 158 1.0 4.0 0.00 0.00 0.00 36 1003.4
20260902034518 72 158 3.0 7.0 0.00 0.00 0.00 36 1003.3
20260902033520 73 158 2.0 7.0 0.00 0.00 0.00 38 1003.3
20260902032520 73 135 2.0 6.0 0.00 0.00 0.00 40 1003.1
20260902031518 72 113 2.0 4.0 0.00 0.00 0.00 41 1002.9
20260902030518 72 90 3.0 5.0 0.00 0.00 0.00 45 1002.9
20260902025521 72 90 5.0 8.0 0.00 0.00 0.00 46 1002.7
20260902024520 72 90 5.0 7.0 0.00 0.00 0.00 46 1002.6
20260902023540 73 90 5.0 7.0 0.00 0.00 0.00 46 1002.6
20260902022518 74 90 5.0 7.0 0.00 0.00 0.00 45 1002.6
20260902021520 74 90 4.0 7.0 0.00 0.00 0.00 45 1002.6
20260902020520 74 90 4.0 6.0 0.00 0.00 0.00 45 1002.6
20260902015520 75 90 5.0 7.0 0.00 0.00 0.00 46 1002.8
20260902014518 76 90 3.0 7.0 0.00 0.00 0.00 48 1002.9
20260902013520 76 90 4.0 7.0 0.00 0.00 0.00 47 1003.0
20260902012520 77 90 4.0 7.0 0.00 0.00 0.00 44 1003.0
20260902011520 77 90 3.0 7.0 0.00 0.00 0.00 43 1003.1
20260902010520 78 90 2.0 6.0 0.00 0.00 0.00 43 1003.0
20260902005520 78 90 3.0 7.0 0.00 0.00 0.00 43 1003.1
20260902004520 78 90 3.0 8.0 0.00 0.00 0.00 40 1003.1
20260902003520 79 113 2.0 5.0 0.00 0.00 0.00 37 1003.1
20260902002520 80 113 2.0 4.0 0.00 0.00 0.00 35 1003.2
20260902001520 81 90 3.0 7.0 0.00 0.00 0.00 36 1003.2
20260902000518 81 113 2.0 6.0 0.00 0.00 0.00 36 1003.3
20260901235520 82 90 3.0 6.0 0.00 0.00 0.00 34 1003.3
20260901234520 82 90 4.0 8.0 0.00 0.00 0.00 33 1003.3